Tracking 26931 objects as of 6-Feb-2023
HD Live streaming from Space Station
objects crossing your sky now

CZ-4 DEB

Track CZ-4 DEB now!
10-day predictions


NORAD ID: 35378
Int'l Code: 2006-046L
Perigee: 570.5 km
Apogee: 791.9 km
Inclination: 97.9 °
Period: 98.2 minutes
Semi major axis: 7052 km
RCS: 0.0012 m2 (small)
Launch date: October 23, 2006
Source: People's Republic of China (PRC)
Launch site: Taiyaun Space Center, China (TSC)

Note: This is SATELLITE DEBRIS
Your satellite tracking list
Your tracking list is empty




NASA's NSSDC Master Catalog

Two Line Element Set (TLE):
1 35378U 06046L   23036.69403840  .00005541  00000-0  85128-3 0  9992
2 35378  97.9144 125.9762 0156991 329.5037  29.7107 14.65936683858002
Source of the keplerian elements: AFSPC